If you wish to contribute or participate in the discussions about articles you are invited to join SKYbrary as a registered user

 Actions

Egilsstaðir Airport

From SKYbrary Wiki

BIEG
Airport
ICAO: BIEG – IATA: EGS
Summary
Name Egilsstaðir Airport
Region Northern Atlantic
Territory Iceland IS.gif
Location , Austurland
Serving Egilsstadir
Elevation 23.165 m
76 ft
76 ft23.165 m
Type medium airport
Coordinates 65° 17' 0.00" N, 14° 24' 5.00" W
Runways
Designator Length Width Surface ROPS
4/22 2000 m6,561.68 ft
45 m147.638 ft
ASP no/no


METAR
Observation BIEG 050700Z 36017KT 9999 SCT015 BKN030 OVC040 02/00 Q1018
Station Egilsstadir
Date/Time 05 June 2020 07:00:00
Wind direction 360°
Wind speed 17 kts
Lowest cloud amount scattered clouds
Temperature 2°C
Dew point 0°C
Humidity 86%
QNH 1018 hPa
Weather condition n/a